Regional Weather Roundup
Issued by NWS

Home | Current Version | Previous Version | Graphics & Text | Print | Product List | Glossary On
Versions: 1 2 3 4 5 6 7 8 9 10 11 12 13 14 15 16 17 18 19 20 21 22 23 24 25 26 27 28 29 30 31 32 33 34 35 36 37 38 39 40 41 42 43 44 45 46 47 48 49 50
000
ASUS43 KLMK 211910
RWRKY
KENTUCKY REGIONAL WEATHER ROUNDUP
NATIONAL WEATHER SERVICE LOUISVILLE KY
300 PM EDT THU AUG 21 2014

NOTE "FAIR" INDICATES FEW OR NO CLOUDS BELOW 12,000 FEET
WITH NO SIGNIFICANT WEATHER AND/OR OBSTRUCTIONS TO VISIBILITY.

KYZ001>023-026-027-061>063-070>075-212000-
WESTERN AND SOUTH CENTRAL KENTUCKY

CITY           SKY/WX    TMP DP  RH WIND       PRES   REMARKS
PADUCAH        SUNNY     93  71  48 SW14      30.04F HX 100
HENDERSON      MOSUNNY   91  73  55 SW7       30.03F HX 100
OWENSBORO      MOSUNNY   90  74  59 SW12      30.06F HX  99
HOPKINSVILLE   MOSUNNY   92  72  52 W9        30.08F HX  99
BOWLING GREEN  PTSUNNY   90  72  55 VRB5      30.09F HX  97
GLASGOW        PTSUNNY   89  71  56 W8        30.11F HX  95
$$

KYZ024-025-028>034-038-045-046-053-212000-
NORTH CENTRAL KENTUCKY

CITY           SKY/WX    TMP DP  RH WIND       PRES   REMARKS
LOUISVILLE/SDF CLOUDY    85  74  69 SW8       30.06F HX  92
LOUISVILLE/LOU PTSUNNY   85  73  67 SW6       30.06F HX  91
FORT KNOX      LGT RAIN  86  75  70 SW10      30.06F HX  95
$$

KYZ035>037-039>044-047>052-055>060-089>105-212000-
NORTHEAST KENTUCKY

CITY           SKY/WX    TMP DP  RH WIND       PRES   REMARKS
LEXINGTON      LGT RAIN  83  73  72 W7        30.11S
COVINGTON      CLOUDY    80  73  79 S8        30.07F
FRANKFORT      LGT RAIN  80  74  81 SW7       30.09S
$$

KYZ054-064>069-076>088-106>120-212000-
SOUTHEAST KENTUCKY

CITY           SKY/WX    TMP DP  RH WIND       PRES   REMARKS
JACKSON        PTSUNNY   85  73  67 VRB5      30.11F HX  91
LONDON         MOSUNNY   87  70  56 SW9       30.13F HX  92
SOMERSET       CLOUDY    86  72  62 W12       30.14F HX  92
MIDDLESBORO    MOSUNNY   85  73  66 S5        30.15F HX  91
MONTICELLO     CLEAR     88  75  65 SW5       30.15F HX  97
$$



USA.gov is the U.S. government's official web portal to all federal, state and local government web resources and services.